Home   Weather   Mackay   Past weeks

Flag for Australia Past Weather in Mackay, Queensland, Australia — Yesterday and Last 2 Weeks

Now
73 °F

Mild.


Feels Like: 76 °F
Forecast: 61 / 76 °F
Wind: 9 mph from Southeast

Location: Mackay Mo

Current Time: Jul 27, 2017 at 2:56:27 pm

Latest Report: Jul 27, 2017 at 1:00 pm


Visibility: N/A

Pressure: 30.16 "Hg

Humidity: 62%

Dew Point: 59 °F

Location of MackayLocation

Past Weather in Mackay — Graph

°F

Mackay Temperature Yesterday

Maximum temperature yesterday: 73 °F (at 1:00 pm)
Minimum temperature yesterday: 54 °F (at 6:00 am)
Average temperature yesterday: 64 °F

High & Low Weather Summary for the Past Weeks

 TemperatureHumidityPressure
High81 °F (Jul 19, 3:00 pm)100% (Jul 15, 3:00 am)30.22 "Hg (Jul 15, 3:00 am)
Low50 °F (Jul 20, 7:00 am)35% (Jul 19, 3:00 pm)29.90 "Hg (Jul 19, 4:00 pm)
Average65 °F81%30.10 "Hg
* Reported Jul 12 1:00 pm — Jul 27 1:00 pm, Mackay. Weather by CustomWeather, © 2017

Note: Actual official high and low records may vary slightly from our data, if they occured in-between our weather recording intervals... More about our weather records

Advertising

Mackay Weather History for the Previous 24 Hours

Scroll right to see more
 ConditionsComfort  
Time TempWeatherWind HumidityBarometerVisibility
1:00 pm
Thu, Jul 27
73 °FMild.9 mph62%30.16 "HgN/A
12:00 pm73 °FMild.9 mph68%30.19 "HgN/A
10:00 am69 °FMild.10 mph71%30.22 "HgN/A
9:00 am65 °FMild.8 mph77%30.22 "HgN/A
7:00 am54 °FCool.9 mph96%30.16 "HgN/A
6:00 am54 °FCool.9 mph95%30.14 "HgN/A
4:00 am55 °FCool.8 mph92%30.14 "HgN/A
3:00 am56 °FCool.8 mph91%30.14 "HgN/A
1:00 am58 °FCool.9 mph88%30.16 "HgN/A
12:00 am58 °FCool.8 mph87%30.16 "HgN/A
10:00 pm
Wed, Jul 26
62 °FCool.6 mph84%30.16 "HgN/A
9:00 pm67 °FMild.8 mph76%30.16 "HgN/A
7:00 pm68 °FMild.8 mph68%30.15 "HgN/A
6:00 pm69 °FMild.8 mph62%30.13 "HgN/A
4:00 pm71 °FMild.10 mph67%30.12 "HgN/A
3:00 pm73 °FMild.10 mph67%30.11 "HgN/A
Weather by CustomWeather, © 2017

See weather overviewHow to use our weather pages